Brightest
NORAD ID: 6073
Int'l Code: 1972-023E
Perigee: 213.4 km
Apogee: 3,374.0 km
Inclination: 52.1 °
Period: 122.4 minutes
Semi major axis: 8164 km
Launch date: March 31, 1972
Source: Commonwealth of Independent States (former USSR) (CIS)
Two Line Element Set (TLE):
1 06073U 72023E 13169.12471801 .00028008 44239-5 17544-3 0 1298
2 06073 052.0775 159.8173 1935507 011.9093 064.5470 11.76770295182418
Source:
NASA's NSSDC Master Catalog entry for COSMOS 482 DESCENT CRAFT